Powrót do katalogu

STARLINK-34191

AktywnyŁącznośćVLEO
NORAD 64176·PAYLOAD·🇺🇸 United States

Wystrzelony May 28, 2025 z Cape Canaveral Space Force Station

Loading…

Następne Przeloty (najbliższe 24 godziny)

TLE

ŚwieżeSource: CelesTrak SupGP

Epoka: Sep 15, 2026, 02:16 UTC

1 64176C 25113G   26258.09493056  .00023393  00000+0  69094-3 0  2583
2 64176  53.1574 287.1919 0001135  93.6296 234.2920 15.34388723    10

Śledź STARLINK-34191 w czasie rzeczywistym z AllMySat

Download on the App Store